Hourly Data Report for August 30, 2019

QUALICUM BEACH AIRPORT
BRITISH COLUMBIA
Current Station Operator: ECCC - MSC

49°20'14.000" N
124°23'38.000" W
58.20 m
1026562
71766
VOQ

Download Data

Hourly Data (August 2019)
Hourly Data Report for August 30, 2019
TIME
LST
Temp Definition
°C
Dew Point Definition
°C
Rel Hum Definition
%
Precip. Amount Definition
mm

Wind Dir Definition
10's deg

Wind Spd Definition
km/h
Visibility Definition
km
Stn Press Definition
kPa
Hmdx Definition


Wind Chill Definition


Weather Definition


00:00 15.5 14.0 91 0.0 28 1   100.80     LegendNANA
01:00 14.7 13.5 92 0.0 0 1   100.83     LegendNANA
02:00 13.6 12.4 92 0.0   0   100.86     LegendNANA
03:00 13.2 12.0 93 0.0 0 1   100.90     LegendNANA
04:00 12.8 11.7 93 0.0 25 1   100.90     LegendNANA
05:00 12.9 11.9 94 0.0 24 1   100.91     LegendNANA
06:00 13.0 11.8 92 0.0   0   100.94     LegendNANA
07:00 14.2 12.6 90 0.0 15 1   100.99     LegendNANA
08:00 17.5 14.5 83 0.0 18 3   101.01     LegendNANA
09:00 18.6 14.0 75 0.0 28 2   101.01     LegendNANA
10:00 19.1 15.7 81 0.0 4 4   101.03     LegendNANA
11:00 19.0 15.3 79 0.0 9 7   101.06     LegendNANA
12:00 20.0 15.2 74 0.0 8 6   101.06     LegendNANA
13:00 20.2 15.3 73 0.0 8 11   101.04     LegendNANA
14:00 20.6 15.4 72 0.0 10 13   101.00 25   LegendNANA
15:00 19.7 15.2 75 0.0 10 12   100.99     LegendNANA
16:00 19.9 15.7 77 0.0 9 6   101.00     LegendNANA
17:00 19.3 15.9 81 0.0 7 4   100.97     LegendNANA
18:00 18.9 15.9 83 0.0 3 2   100.96     LegendNANA
19:00 18.1 16.0 88 0.0 7 1   100.93     LegendNANA
20:00 18.0 16.0 89 0.0 17 3   101.02     LegendNANA
21:00 17.7 15.9 89 0.0 25 5   100.90     LegendNANA
22:00 17.5 14.9 85 0.0 18 2   100.91     LegendNANA
23:00 16.7 14.7 88 0.0 22 2   100.90     LegendNANA

Notes on Data Quality.

Legend

  • E = Estimated
  • M = Missing
  • NA = Not Available*
  • [empty] = Indicates an unobserved value
Date modified: